User: anonymous   Login
Location: Unspecified
(0.0000°N, 0.0000°E)
Time: 05:38:12
(UTC+00:00)
Language:

LARES - Orbit

View from above orbital plane
View from above orbital plane
View from above satellite
View from above satellite

Ground track
Ground track

The orbit data is extracted from the following two-line orbital elements,

1 38077U 12006A   18319.44119232 -.00000037 +00000-0 +10009-4 0  9997
2 38077 069.4955 344.9240 0008225 153.3036 206.8415 12.54930884309540
Epoch (UTC): 15 November 2018 10:35:19
Eccentricity: 0.0008225
inclination: 69.4955°
perigee height: 1437 km
apogee height: 1450 km
right ascension of ascending node: 344.9240°
argument of perigee: 153.3036°
revolutions per day: 12.54930884
mean anomaly at epoch: 206.8415°
orbit number at epoch: 30954

The dashed part of the orbit path shows where the satellite is in the earth's shadow,  

DLR